Voltar ao catálogo

USA 469

AtivoMilitarVLEO
NORAD 62538·PAYLOAD·🇺🇸 United States

Lançado Jan 10, 2025 de Vandenberg Space Force Base

Loading…

Próximas Passagens (próximas 24 horas)

TLE

ObsoletoSource: Mike McCants

Época: Aug 23, 2026, 20:26 UTC

1 62538U 25005G   26235.85161625 0.00000000  00000-0  00000-0 0    01
2 62538  70.0182 246.9597 0002000 274.8193  85.1806 14.96713588    02

Acompanhe USA 469 em tempo real com AllMySat

Download on the App Store